Location: ????? ??????
(37.8317°N, 23.8750°E)
Time: 13:29:39
(UTC+00:00)

Cosmos 773 Rocket - Pass Details

Date: 20 January 2021
Orbit: 746 x 776 km, 74.1° (Epoch: 03 March)

Event Time Altitude Azimuth Distance (km) Brightness Sun altitude
Rises 16:37:33 0° 339° (NNW) 3,204 7.3 -12.4°
Reaches altitude 10° 16:39:56 10° 337° (NNW) 2,273 6.5 -12.9°
Maximum altitude 16:45:02 69° 255° (WSW) 800 4.3 -13.9°
Drops below altitude 10° 16:50:06 10° 172° (S) 2,253 6.5 -14.8°
Sets 16:52:27 0° 170° (S) 3,173 7.3 -15.3°
